Find Starlink 32094

NORAD ID: 59696 Int'l Des: 2024-086 Owner: SPXS Country: US Constellation: starlink operational
LEOCIRCULAR

当前视图

正在加载3D地球...

About Starlink 32094

Starlink 32094 (NORAD 59696) is a starlink constellation satellite (v2 mini) launched May 8, 2024 by SPXS of US. It operates in LEO, CIRCULAR orbit with a mass of 730.00 kg.

即将过境

Passes for default location (London). Set your location on the main map for personalized predictions.

高度历史

Loading altitude history...

两行轨道根数

1 59696U 24086Q 26262.72428449 .00000976 00000-0 45002-4 0 9990
2 59696 43.0047 44.3936 0001580 263.1626 96.9046 15.27584142133789
Epoch: Sep 19, 2026 • Age: 28 hours

当前状态

高度 488.2 km
远地点 / 近地点 N/A
速度 7.62 km/s
星下点 -24.21°S, 47.31°E
发射日期 May 8, 2024
运行时间 2.3 years
类型 internet

技术详情

分类 Payload
质量 730.00 kg
干质量 700.00 kg
长度 0.30 m
跨度 29.00 m
形状 ? Box + pan
制造商 SPXS
平台类型 Starlink V2M
阶段状态 In Orbit
所有者/国家 SPXS/US

Most Searched